When you browse on this site, cookies collect data to enhance your experience and personalize the content and advertising you see.
Visit our Privacy Policy to learn more. By continuing to use the site, you agree to this use of cookies and data.
  • In Sweden
  • List of Countries
  • For 7 days
  • Water Temperature
  • Weather Map
  • Weather Widgets
  • user-avatar
    Login

    Hourly Weather Gorodenka

    Today, 30 May, Saturday

    Time Temperature Precipitation Wind Pressure Humidity
    00:00 +10°C° 0 mm 5 mps 734 mmHg 98%
    01:00 +10°C° 0 mm 5 mps 734 mmHg 98%
    02:00 +9°C° 0 mm 5 mps 734 mmHg 98%
    03:00 +9°C° 0 mm 5 mps 733 mmHg 100%
    04:00 +9°C° 0 mm 5 mps 733 mmHg 99%
    05:00 +8°C° 0 mm 5 mps 733 mmHg 100%
    06:00 +8°C° 0 mm 5 mps 733 mmHg 100%
    07:00 +8°C° 0 mm 6 mps 733 mmHg 99%
    08:00 +9°C° 0 mm 6 mps 733 mmHg 98%
    09:00 +9°C° 0 mm 6 mps 733 mmHg 98%
    10:00 +9°C° 0 mm 6 mps 733 mmHg 98%
    11:00 +10°C° 0 mm 6 mps 733 mmHg 98%
    12:00 +11°C° 0 mm 7 mps 733 mmHg 97%
    13:00 +12°C° 0 mm 7 mps 732 mmHg 96%
    14:00 +14°C° 0 mm 7 mps 732 mmHg 94%
    15:00 +14°C° 0 mm 7 mps 732 mmHg 93%
    16:00 +15°C° 0 mm 7 mps 731 mmHg 91%
    17:00 +15°C° 0 mm 6 mps 731 mmHg 90%
    18:00 +14°C° 0 mm 6 mps 730 mmHg 89%
    19:00 +14°C° 0 mm 6 mps 730 mmHg 90%
    20:00 +13°C° 0.4 mm 5 mps 730 mmHg 99%
    21:00 +12°C° 0.1 mm 4 mps 730 mmHg 98%
    22:00 +12°C° 0 mm 5 mps 730 mmHg 97%
    23:00 +10°C° 0 mm 5 mps 730 mmHg 97%

    Tomorrow, 31 May, Sunday

    Time Temperature Precipitation Wind Pressure Humidity
    00:00 +10°C° 0 mm 5 mps 729 mmHg 97%
    01:00 +10°C° 0 mm 5 mps 729 mmHg 97%
    02:00 +10°C° 0 mm 6 mps 728 mmHg 98%
    03:00 +10°C° 0 mm 6 mps 728 mmHg 96%
    04:00 +10°C° 0 mm 5 mps 727 mmHg 95%
    05:00 +10°C° 0 mm 6 mps 727 mmHg 96%
    06:00 +10°C° 0.2 mm 6 mps 727 mmHg 99%
    07:00 +10°C° 0.3 mm 6 mps 727 mmHg 98%
    08:00 +11°C° 0.8 mm 6 mps 727 mmHg 98%
    09:00 +11°C° 1.1 mm 7 mps 727 mmHg 97%
    10:00 +11°C° 0.9 mm 7 mps 727 mmHg 97%
    11:00 +11°C° 1.2 mm 7 mps 727 mmHg 97%
    12:00 +13°C° 1.4 mm 6 mps 727 mmHg 98%
    13:00 +13°C° 1.1 mm 6 mps 727 mmHg 98%
    14:00 +13°C° 2 mm 6 mps 727 mmHg 98%
    15:00 +12°C° 2.8 mm 5 mps 727 mmHg 98%
    16:00 +12°C° 2.3 mm 5 mps 727 mmHg 99%
    17:00 +12°C° 1.3 mm 3 mps 727 mmHg 100%
    18:00 +12°C° 0.1 mm 2 mps 727 mmHg 100%
    19:00 +13°C° 0 mm 2 mps 727 mmHg 98%
    20:00 +13°C° 0 mm 2 mps 727 mmHg 99%
    21:00 +13°C° 0 mm 2 mps 728 mmHg 99%
    22:00 +12°C° 0 mm 2 mps 728 mmHg 100%
    23:00 +11°C° 0 mm 3 mps 729 mmHg 100%

    Day after tomorrow, 1 June, Monday

    Time Temperature Precipitation Wind Pressure Humidity
    00:00 +10°C° 0 mm 3 mps 729 mmHg 100%
    01:00 +12°C° 0 mm 2 mps 729 mmHg 100%
    02:00 +12°C° 0 mm 2 mps 729 mmHg 100%
    03:00 +12°C° 0 mm 1 mps 729 mmHg 100%
    04:00 +12°C° 0 mm 2 mps 729 mmHg 100%
    05:00 +10°C° 1 mm 2 mps 730 mmHg 100%
    06:00 +11°C° 3.5 mm 4 mps 730 mmHg 100%
    07:00 +10°C° 1.7 mm 5 mps 730 mmHg 100%
    08:00 +9°C° 1.1 mm 6 mps 731 mmHg 100%
    09:00 +10°C° 1.1 mm 7 mps 731 mmHg 99%
    10:00 +9°C° 1.8 mm 6 mps 732 mmHg 99%
    11:00 +10°C° 2.3 mm 7 mps 733 mmHg 98%
    12:00 +11°C° 1.7 mm 6 mps 733 mmHg 97%
    13:00 +12°C° 1.2 mm 7 mps 733 mmHg 98%
    14:00 +13°C° 0.9 mm 6 mps 733 mmHg 92%
    15:00 +12°C° 0.2 mm 7 mps 733 mmHg 88%
    16:00 +14°C° 0 mm 7 mps 733 mmHg 87%
    17:00 +14°C° 0 mm 7 mps 734 mmHg 87%
    18:00 +12°C° 0 mm 7 mps 734 mmHg 88%
    19:00 +11°C° 0 mm 6 mps 734 mmHg 90%
    20:00 +10°C° 0 mm 6 mps 734 mmHg 91%
    21:00 +10°C° 0 mm 5 mps 734 mmHg 92%
    22:00 +9°C° 0 mm 6 mps 735 mmHg 92%
    23:00 +9°C° 0 mm 5 mps 735 mmHg 92%

    2 June, Tuesday

    Time Temperature Precipitation Wind Pressure Humidity
    00:00 +8°C° 0 mm 5 mps 734 mmHg 93%
    01:00 +8°C° 0 mm 4 mps 734 mmHg 97%
    02:00 +8°C° 0 mm 4 mps 734 mmHg 97%
    03:00 +8°C° 0 mm 3 mps 734 mmHg 99%
    04:00 +7°C° 0 mm 3 mps 734 mmHg 100%
    05:00 +7°C° 0 mm 3 mps 734 mmHg 100%
    06:00 +7°C° 0 mm 4 mps 733 mmHg 98%
    07:00 +8°C° 0 mm 4 mps 734 mmHg 97%
    08:00 +10°C° 0 mm 4 mps 734 mmHg 97%
    09:00 +8°C° 0 mm 5 mps 734 mmHg 98%
    10:00 +9°C° 0 mm 5 mps 734 mmHg 98%
    11:00 +10°C° 0 mm 5 mps 734 mmHg 96%
    12:00 +12°C° 0 mm 5 mps 733 mmHg 91%
    13:00 +13°C° 0 mm 3 mps 732 mmHg 90%
    14:00 +13°C° 0.2 mm 5 mps 732 mmHg 88%
    15:00 +14°C° 0 mm 4 mps 732 mmHg 83%
    16:00 +13°C° 0.2 mm 4 mps 731 mmHg 87%
    17:00 +14°C° 0 mm 4 mps 731 mmHg 83%
    18:00 +13°C° 0.2 mm 4 mps 730 mmHg 85%
    19:00 +13°C° 0 mm 4 mps 730 mmHg 86%
    20:00 +12°C° 0 mm 3 mps 730 mmHg 91%
    21:00 +12°C° 0 mm 2 mps 730 mmHg 96%
    22:00 +10°C° 0 mm 3 mps 730 mmHg 97%
    23:00 +10°C° 0 mm 3 mps 730 mmHg 97%

    3 June, Wednesday

    Time Temperature Precipitation Wind Pressure Humidity
    00:00 +9°C° 0 mm 3 mps 729 mmHg 98%
    01:00 +9°C° 0 mm 3 mps 729 mmHg 98%
    02:00 +9°C° 0 mm 3 mps 728 mmHg 98%
    03:00 +8°C° 0 mm 2 mps 728 mmHg 100%
    04:00 +9°C° 0 mm 3 mps 728 mmHg 100%
    05:00 +9°C° 0 mm 3 mps 728 mmHg 100%
    06:00 +9°C° 0 mm 3 mps 727 mmHg 98%
    07:00 +10°C° 0 mm 3 mps 727 mmHg 99%
    08:00 +10°C° 0 mm 4 mps 727 mmHg 98%
    09:00 +11°C° 0 mm 4 mps 727 mmHg 98%
    10:00 +12°C° 0 mm 3 mps 727 mmHg 96%
    11:00 +13°C° 0.4 mm 4 mps 727 mmHg 95%
    12:00 +14°C° 1.6 mm 4 mps 727 mmHg 93%
    13:00 +14°C° 0.2 mm 5 mps 727 mmHg 91%
    14:00 +15°C° 0.3 mm 5 mps 726 mmHg 90%
    15:00 +15°C° 0.6 mm 4 mps 726 mmHg 90%
    16:00 +15°C° 0.1 mm 5 mps 726 mmHg 93%
    17:00 +13°C° 0.4 mm 5 mps 726 mmHg 93%
    18:00 +13°C° 0.1 mm 4 mps 726 mmHg 93%
    19:00 +12°C° 0 mm 5 mps 726 mmHg 92%
    20:00 +11°C° 0 mm 3 mps 726 mmHg 95%
    21:00 +12°C° 0 mm 2 mps 726 mmHg 98%
    22:00 +11°C° 0 mm 3 mps 726 mmHg 98%
    23:00 +10°C° 0 mm 3 mps 726 mmHg 100%

    4 June, Thursday

    Time Temperature Precipitation Wind Pressure Humidity
    00:00 +10°C° 0.1 mm 3 mps 726 mmHg 100%
    01:00 +10°C° 0 mm 2 mps 726 mmHg 100%
    02:00 +10°C° 0.8 mm 2 mps 725 mmHg 100%
    03:00 +10°C° 0.1 mm 2 mps 725 mmHg 100%
    04:00 +10°C° 0 mm 2 mps 725 mmHg 100%
    05:00 +10°C° 0 mm 2 mps 725 mmHg 100%
    06:00 +12°C° 1.1 mm 2 mps 725 mmHg 100%
    07:00 +11°C° 0.4 mm 3 mps 726 mmHg 100%
    08:00 +11°C° 1.2 mm 3 mps 726 mmHg 100%
    09:00 +12°C° 0.6 mm 3 mps 727 mmHg 99%
    10:00 +14°C° 0 mm 4 mps 727 mmHg 95%
    11:00 +13°C° 0 mm 4 mps 727 mmHg 94%
    12:00 +14°C° 0 mm 5 mps 728 mmHg 92%
    13:00 +16°C° 0.1 mm 5 mps 728 mmHg 89%
    14:00 +17°C° 0 mm 5 mps 727 mmHg 88%
    15:00 +17°C° 0.3 mm 5 mps 728 mmHg 85%
    16:00 +19°C° 0 mm 6 mps 728 mmHg 82%
    17:00 +19°C° 0 mm 5 mps 728 mmHg 83%
    18:00 +18°C° 0 mm 4 mps 728 mmHg 90%
    19:00 +18°C° 0 mm 3 mps 728 mmHg 90%
    20:00 +17°C° 0 mm 3 mps 728 mmHg 92%
    21:00 +16°C° 0 mm 2 mps 729 mmHg 95%
    22:00 +15°C° 0 mm 2 mps 729 mmHg 97%
    23:00 +15°C° 0 mm 2 mps 730 mmHg 97%
    Show more